Location: Unspecified
(50.8683°N, 0.0000°E)
Time: 14:06:02
(UTC+00:00)

ALOS - Visible Passes

Search period start: 04 April 2026 00:00
Search period end: 14 April 2026 00:00
Orbit: 661 x 662 km, 98.1° (Epoch: 29 March)

Date Brightness Start Highest point End Pass type
(mag) Time Alt. Az. Time Alt. Az. Time Alt. Az.
4 Apr 2.3 02:53:17 10° NNE 02:57:52 70° ESE 02:59:11 45° S visible
4 Apr 3.8 04:31:10 10° NNW 04:34:18 19° WNW 04:37:13 11° W visible
5 Apr 4.4 01:47:23 10° NE 01:50:32 18° E 01:51:40 17° ESE visible
5 Apr 2.2 03:23:22 10° N 03:27:53 63° WNW 03:29:41 35° SW visible
6 Apr 3.6 02:16:44 10° NNE 02:20:51 33° E 02:22:10 27° SE visible
6 Apr 3.0 03:53:39 10° N 03:57:47 35° WNW 04:00:12 21° WSW visible
7 Apr 2.5 02:46:30 10° NNE 02:51:02 61° ESE 02:52:40 37° SSE visible
7 Apr 3.7 04:24:11 10° NNW 04:27:34 21° WNW 04:30:42 11° WSW visible
8 Apr 4.5 01:40:51 10° NE 01:43:38 16° E 01:45:08 14° ESE visible
8 Apr 2.1 03:16:31 10° N 03:21:05 73° WNW 03:23:10 32° SSW visible
9 Apr 3.8 02:10:01 10° NE 02:13:58 28° E 02:15:38 23° SE visible
9 Apr 2.8 03:46:45 10° N 03:51:00 40° WNW 03:53:40 20° SW visible
10 Apr 2.8 02:39:42 10° NNE 02:44:10 52° E 02:46:08 30° SSE visible
10 Apr 3.5 04:17:12 10° N 04:20:48 23° WNW 04:24:10 11° WSW visible
11 Apr 4.7 01:34:22 10° NE 01:36:42 14° E 01:38:35 11° ESE visible
11 Apr 2.1 03:09:39 10° NNE 03:14:14 84° WNW 03:16:37 28° SSW visible
12 Apr 4.0 02:03:18 10° NE 02:07:03 25° E 02:09:04 18° SE visible
12 Apr 2.6 03:39:49 10° N 03:44:11 46° WNW 03:47:06 19° SW visible
13 Apr 3.1 02:32:53 10° NNE 02:37:17 45° E 02:39:33 25° SSE visible
13 Apr 3.4 04:10:12 10° N 04:14:00 26° WNW 04:17:34 11° WSW visible
